StationID,Date,MaxTemp,MinTemp,Precipitation,Snowfall,SnowDepth
"CA001068134","2013-01-17",41.72,37.94,16.00,0.00,
"CA001068134","2013-01-18",43.16,34.88,42.00,0.00,
"CA001068134","2013-01-19",36.86,33.08,6.00,0.00,
"CA001068134","2013-01-21",33.26,26.24,0.00,0.00,
"CA001068134","2013-01-22",34.52,28.58,4.00,0.00,
"CA001068134","2013-01-23",33.98,31.46,42.00,16.00,10.00
"CA001068134","2013-01-24",34.34,31.82,28.00,10.00,10.00
"CA001068134","2013-01-25",37.76,32.36,142.00,28.00,10.00
"CA001068134","2013-01-26",37.04,32.54,40.00,8.00,0.00
"CA001068134","2013-01-27",38.30,31.28,2.00,0.00,
"CA001068134","2013-01-28",34.52,31.28,42.00,46.00,0.00
"CA001068134","2013-01-29",37.94,30.56,65.00,58.00,40.00
"CA001068134","2013-01-30",39.20,34.70,22.00,0.00,20.00
"CA001068134","2013-01-31",39.38,34.52,38.00,0.00,
"CA001068134","2013-02-01",41.90,37.22,10.00,0.00,
"CA001068134","2013-02-02",41.54,37.40,16.00,0.00,
"CA001068134","2013-02-03",37.94,33.26,24.00,0.00,
"CA001068134","2013-02-04",34.34,31.10,10.00,0.00,
"CA001068134","2013-02-06",36.14,,,,10.00
"CA001068134","2013-02-08",39.56,35.96,0.00,0.00,
"CA001068134","2013-02-09",37.94,34.16,6.00,0.00,
"CA001068134","2013-02-10",41.54,35.60,8.00,0.00,
"CA001068134","2013-02-11",40.64,36.32,2.00,0.00,
"CA001068134","2013-02-13",40.46,32.00,0.00,0.00,
"CA001068134","2013-02-15",45.50,36.14,6.00,0.00,
"CA001068134","2013-02-16",44.24,32.00,0.00,0.00,
"CA001068134","2013-02-17",36.50,25.88,0.00,0.00,
"CA001068134","2013-02-18",35.42,28.76,18.00,22.00,10.00
"CA001068134","2013-02-19",36.86,28.04,0.00,0.00,
"CA001068134","2013-02-23",37.22,32.72,14.00,14.00,40.00
"CA001068134","2013-02-24",35.60,31.82,68.00,68.00,20.00
"CA001068134","2013-02-25",38.66,28.04,0.00,0.00,20.00
"CA001068134","2013-02-27",34.52,29.48,57.00,53.00,50.00
"CA001068134","2013-02-28",34.70,31.28,93.00,72.00,30.00
"CA001068134","2013-03-01",36.68,31.82,0.00,0.00,30.00
"CA001068134","2013-03-02",40.28,30.74,26.00,22.00,10.00
"CA001068134","2013-03-04",42.98,25.34,0.00,0.00,
"CA001068134","2013-03-05",43.52,28.22,0.00,0.00,
"CA001068134","2013-03-06",43.34,25.52,0.00,0.00,
"CA001068134","2013-03-08",47.12,21.38,0.00,0.00,
"CA001068134","2013-03-09",42.44,26.96,14.00,0.00,
"CA001068134","2013-03-10",42.08,31.64,4.00,4.00,
"CA001068134","2013-03-11",41.00,26.78,0.00,0.00,
"CA001068134","2013-03-12",35.42,28.76,4.00,4.00,
"CA001068134","2013-03-13",36.68,31.28,58.00,62.00,20.00
"CA001068134","2013-03-14",33.80,32.00,79.00,54.00,10.00
"CA001068134","2013-03-15",33.44,30.02,60.00,46.00,30.00
"CA001068134","2013-03-18",38.12,26.78,8.00,8.00,
"CA001068134","2013-03-21",40.46,27.50,2.00,2.00,
"CA001068134","2013-03-22",41.36,26.24,0.00,0.00,
"CA001068134","2013-03-23",45.32,22.64,0.00,0.00,
"CA001068134","2013-03-24",46.40,32.00,0.00,0.00,
"CA001068134","2013-03-25",46.58,34.70,16.00,0.00,
"CA001068134","2013-03-26",49.46,36.68,26.00,0.00,
"CA001068134","2013-03-27",53.42,32.36,12.00,0.00,
"CA001068134","2013-03-28",55.22,27.68,0.00,0.00,
"CA001068134","2013-03-29",54.14,25.16,0.00,0.00,
"CA001068134","2013-03-30",55.76,28.40,0.00,0.00,
"CA001068134","2013-03-31",62.42,33.26,0.00,0.00,
"CA001068134","2013-04-01",60.08,36.86,0.00,0.00,
"CA001068134","2013-04-02",51.98,36.68,0.00,0.00,
"CA001068134","2013-04-03",53.60,27.86,0.00,0.00,
"CA001068134","2013-04-04",53.24,38.30,0.00,0.00,
"CA001068134","2013-04-05",46.04,38.48,50.00,0.00,
"CA001068134","2013-04-06",45.86,35.78,64.00,0.00,
"CA001068134","2013-04-07",53.42,34.52,0.00,0.00,
"CA001068134","2013-04-08",57.38,34.88,0.00,0.00,
"CA001068134","2013-04-09",45.86,37.94,130.00,0.00,
"CA001068134","2013-04-10",44.78,35.96,2.00,0.00,
"CA001068134","2013-04-12",43.52,32.18,30.00,28.00,
"CA001068134","2013-04-13",50.90,32.18,14.00,8.00,
"CA001068134","2013-04-14",50.90,35.24,0.00,0.00,
"CA001068134","2013-04-15",53.60,32.54,0.00,0.00,
"CA001068134","2013-04-16",55.40,31.46,0.00,0.00,
"CA001068134","2013-04-17",46.94,39.38,0.00,0.00,
"CA001068134","2013-04-18",45.14,40.28,15.00,0.00,
"CA001068134","2013-04-19",53.06,37.76,8.00,0.00,
"CA001068134","2013-04-20",50.18,24.08,0.00,0.00,
"CA001068134","2013-04-21",54.68,31.46,0.00,0.00,
"CA001068134","2013-04-22",56.66,24.44,0.00,0.00,
"CA001068134","2013-04-23",62.24,37.04,0.00,0.00,
"CA001068134","2013-04-24",58.28,34.70,0.00,0.00,
"CA001068134","2013-04-25",49.64,42.80,36.00,0.00,
"CA001068134","2013-04-26",50.72,39.20,70.00,0.00,
"CA001068134","2013-04-27",43.88,37.40,94.00,0.00,
"CA001068134","2013-04-28",43.88,32.54,54.00,16.00,
"CA001068134","2013-05-01",44.78,35.24,10.00,0.00,
"CA001068134","2013-05-02",51.08,35.96,24.00,0.00,
"CA001068134","2013-05-05",76.82,42.44,0.00,0.00,
"CA001068134","2013-05-06",71.42,38.30,0.00,0.00,
"CA001068134","2013-05-07",76.64,42.62,0.00,0.00,
"CA001068134","2013-05-08",75.38,40.64,0.00,0.00,
"CA001068134","2013-05-09",76.28,40.46,0.00,0.00,
"CA001068134","2013-05-10",73.76,41.90,0.00,0.00,
"CA001068134","2013-05-11",57.92,49.64,68.00,0.00,
"CA001068134","2013-05-13",55.58,45.68,10.00,0.00,
"CA001068134","2013-05-14",54.32,43.52,2.00,0.00,
"CA001068134","2013-05-15",54.32,42.98,8.00,0.00,
"CA001068134","2013-05-18",60.44,46.40,22.00,0.00,
"CA001068134","2013-05-19",56.12,39.92,0.00,0.00,
"CA001068134","2013-05-20",57.74,37.40,2.00,0.00,
"CA001068134","2013-05-21",60.44,43.70,,0.00,
"CA001068134","2013-05-22",72.68,49.64,0.00,0.00,
"CA001068134","2013-05-25",62.06,48.02,16.00,0.00,
"CA001068134","2013-05-26",66.92,49.82,6.00,0.00,
"CA001068134","2013-05-27",63.14,44.24,16.00,0.00,
"CA001068134","2013-05-28",62.60,49.10,30.00,0.00,
"CA001068134","2013-05-29",65.48,48.38,6.00,0.00,
"CA001068134","2013-05-30",53.78,46.76,92.00,0.00,
"CA001068134","2013-05-31",62.24,45.50,4.00,0.00,
"CA001068134","2013-06-01",63.68,41.54,2.00,0.00,
"CA001068134","2013-06-02",62.60,44.60,0.00,0.00,
"CA001068134","2013-06-03",71.06,41.72,0.00,0.00,
"CA001068134","2013-06-04",58.64,49.82,2.00,0.00,
"CA001068134","2013-06-05",63.32,47.48,4.00,0.00,
"CA001068134","2013-06-06",51.62,44.24,50.00,0.00,
"CA001068134","2013-06-07",56.12,47.48,6.00,0.00,
"CA001068134","2013-06-08",60.98,46.22,16.00,0.00,
"CA001068134","2013-06-09",63.14,45.86,0.00,0.00,
"CA001068134","2013-06-10",69.44,44.60,0.00,0.00,
"CA001068134","2013-06-11",69.80,47.84,4.00,0.00,
"CA001068134","2013-06-13",67.82,52.70,0.00,0.00,
"CA001068134","2013-06-14",69.80,49.10,0.00,0.00,
"CA001068134","2013-06-15",80.24,47.30,0.00,0.00,
"CA001068134","2013-06-16",83.48,53.42,0.00,0.00,
"CA001068134","2013-06-17",72.14,51.80,4.00,0.00,
"CA001068134","2013-06-18",66.74,53.78,68.00,0.00,
"CA001068134","2013-06-19",64.04,54.14,30.00,0.00,
"CA001068134","2013-06-21",68.18,57.20,0.00,0.00,
"CA001068134","2013-06-22",72.68,54.86,0.00,0.00,
"CA001068134","2013-06-23",80.96,57.20,0.00,0.00,
"CA001068134","2013-06-24",76.10,55.94,10.00,0.00,
"CA001068134","2013-06-25",65.12,52.88,108.00,0.00,
"CA001068134","2013-06-26",70.34,52.52,2.00,0.00,
"CA001068134","2013-06-27",76.82,46.22,16.00,0.00,
"CA001068134","2013-06-29",71.60,52.88,6.00,0.00,
"CA001068134","2013-07-01",67.64,59.90,52.00,0.00,
"CA001068134","2013-07-02",71.96,56.66,0.00,0.00,
"CA001068134","2013-07-03",71.78,52.16,0.00,0.00,
"CA001068134","2013-07-04",70.16,55.22,0.00,0.00,
"CA001068134","2013-07-05",73.58,54.32,0.00,0.00,
"CA001068134","2013-07-06",77.36,50.72,0.00,0.00,
"CA001068134","2013-07-07",81.14,52.16,0.00,0.00,
"CA001068134","2013-07-08",,,0.00,,
"CA001068134","2013-07-09",67.46,55.76,0.00,0.00,
"CA001068134","2013-07-10",60.08,49.82,36.00,0.00,
"CA001068134","2013-07-11",61.16,48.02,15.00,0.00,
"CA001068134","2013-07-12",57.38,50.00,44.00,0.00,
"CA001068134","2013-07-13",54.50,49.82,42.00,0.00,
"CA001068134","2013-07-14",70.16,48.92,28.00,0.00,
"CA001068134","2013-07-15",80.06,45.86,0.00,0.00,
"CA001068134","2013-07-16",89.60,55.04,0.00,0.00,
"CA001068134","2013-07-17",89.78,60.08,0.00,0.00,
"CA001068134","2013-07-18",78.80,59.18,0.00,0.00,
"CA001068134","2013-07-19",77.18,53.42,0.00,0.00,
"CA001068134","2013-07-20",74.84,57.56,0.00,0.00,
"CA001068134","2013-07-21",75.38,54.32,0.00,0.00,
"CA001068134","2013-07-22",75.20,49.46,,0.00,
"CA001068134","2013-07-23",65.12,54.86,192.00,0.00,
"CA001068134","2013-07-24",72.50,55.04,26.00,0.00,
"CA001068134","2013-07-25",69.80,53.60,0.00,0.00,
"CA001068134","2013-07-26",68.90,53.06,6.00,0.00,
"CA001068134","2013-07-27",69.80,55.22,0.00,0.00,
"CA001068134","2013-07-28",82.58,48.20,0.00,0.00,
"CA001068134","2013-07-29",86.00,51.26,0.00,0.00,
"CA001068134","2013-07-30",88.52,59.90,0.00,0.00,
"CA001068134","2013-07-31",91.40,58.46,0.00,0.00,
"CA001068134","2013-08-01",91.40,59.54,0.00,0.00,
"CA001068134","2013-08-02",82.76,56.12,0.00,0.00,
"CA001068134","2013-08-03",80.06,50.90,0.00,0.00,
"CA001068134","2013-08-04",82.40,51.62,0.00,0.00,
"CA001068134","2013-08-05",80.60,52.34,0.00,0.00,
"CA001068134","2013-08-06",82.94,52.52,0.00,0.00,
"CA001068134","2013-08-07",80.42,54.14,0.00,0.00,
"CA001068134","2013-08-08",67.10,59.72,54.00,0.00,
"CA001068134","2013-08-09",80.06,59.54,0.00,0.00,
"CA001068134","2013-08-10",85.28,53.96,0.00,0.00,
"CA001068134","2013-08-11",85.64,53.96,0.00,0.00,
"CA001068134","2013-08-12",70.52,55.40,62.00,0.00,
"CA001068134","2013-08-13",66.56,57.20,86.00,0.00,
"CA001068134","2013-08-14",77.00,53.24,12.00,0.00,
"CA001068134","2013-08-17",65.12,56.48,8.00,0.00,
"CA001068134","2013-08-20",65.66,50.00,2.00,0.00,
"CA001068134","2013-08-21",56.48,44.42,50.00,0.00,
"CA001068134","2013-08-22",70.34,53.42,12.00,0.00,
"CA001068134","2013-08-23",68.90,54.86,64.00,0.00,
"CA001068134","2013-08-24",68.90,53.24,26.00,0.00,
"CA001068134","2013-08-25",63.14,53.42,0.00,0.00,
"CA001068134","2013-08-26",66.38,50.54,0.00,0.00,
"CA001068134","2013-08-27",65.66,53.60,10.00,0.00,
"CA001068134","2013-08-28",75.02,49.46,0.00,0.00,
"CA001068134","2013-08-30",69.80,57.02,6.00,0.00,
"CA001068134","2013-08-31",75.02,55.40,0.00,0.00,
"CA001068134","2013-09-01",78.44,55.40,0.00,0.00,
"CA001068134","2013-09-02",78.98,51.80,0.00,0.00,
"CA001068134","2013-09-03",81.86,54.86,0.00,0.00,
"CA001068134","2013-09-04",67.28,57.02,117.00,0.00,
"CA001068134","2013-09-05",74.84,56.30,0.00,0.00,
"CA001068134","2013-09-06",80.78,55.22,0.00,0.00,
"CA001068134","2013-09-07",82.04,53.60,0.00,0.00,
"CA001068134","2013-09-10",76.28,46.58,0.00,0.00,
"CA001068134","2013-09-11",82.04,54.50,0.00,0.00,
"CA001068134","2013-09-12",83.30,49.10,0.00,0.00,
"CA001068134","2013-09-14",80.78,52.52,0.00,0.00,
"CA001068134","2013-09-15",77.36,52.34,0.00,0.00,
"CA001068134","2013-09-16",63.14,52.16,26.00,0.00,
"CA001068134","2013-09-17",61.16,45.68,0.00,0.00,
"CA001068134","2013-09-18",58.28,48.02,0.00,0.00,
"CA001068134","2013-09-19",53.78,48.92,217.00,0.00,
"CA001068134","2013-09-20",61.70,50.18,40.00,0.00,
"CA001068134","2013-09-21",56.30,45.50,16.00,0.00,
"CA001068134","2013-09-22",54.50,45.50,44.00,0.00,
"CA001068134","2013-09-23",49.82,43.16,12.00,0.00,
"CA001068134","2013-09-24",57.02,36.32,2.00,0.00,
"CA001068134","2013-09-25",61.52,35.60,0.00,0.00,
"CA001068134","2013-09-26",51.26,32.54,22.00,0.00,
"CA001068134","2013-09-27",53.42,45.86,32.00,0.00,
"CA001068134","2013-09-28",48.02,41.90,80.00,0.00,
"CA001068134","2013-09-29",48.38,39.56,70.00,0.00,
"CA001068134","2013-10-01",52.88,39.92,18.00,0.00,
"CA001068134","2013-10-02",57.92,36.86,0.00,0.00,
"CA001068134","2013-10-03",51.44,32.18,0.00,0.00,
"CA001068134","2013-10-04",51.26,46.58,71.00,0.00,
"CA001068134","2013-10-05",50.36,42.80,200.00,0.00,
"CA001068134","2013-10-06",47.66,41.54,355.00,0.00,
"CA001068134","2013-10-07",53.78,43.16,61.00,0.00,
"CA001068134","2013-10-08",53.96,37.58,2.00,0.00,
"CA001068134","2013-10-09",51.08,42.80,46.00,0.00,
"CA001068134","2013-10-10",51.26,41.36,0.00,0.00,
"CA001068134","2013-10-11",46.40,39.38,22.00,0.00,
"CA001068134","2013-10-12",53.06,40.10,0.00,0.00,
"CA001068134","2013-10-13",48.74,40.64,4.00,0.00,
"CA001068134","2013-10-14",53.42,45.14,0.00,0.00,
"CA001068134","2013-10-15",58.82,45.86,0.00,0.00,
"CA001068134","2013-10-16",54.14,39.20,0.00,0.00,
"CA001068134","2013-10-17",53.24,36.14,0.00,0.00,
"CA001068134","2013-10-18",41.72,31.46,0.00,0.00,
"CA001068134","2013-10-19",46.22,39.74,2.00,0.00,
"CA001068134","2013-10-20",52.88,39.02,0.00,0.00,
"CA001068134","2013-10-21",54.50,44.60,0.00,0.00,
"CA001068134","2013-10-22",55.58,48.20,0.00,0.00,
"CA001068134","2013-10-23",57.20,37.58,0.00,0.00,
"CA001068134","2013-10-24",44.96,36.32,0.00,0.00,
"CA001068134","2013-10-25",44.24,39.74,0.00,0.00,
"CA001068134","2013-10-26",48.20,41.18,2.00,0.00,
"CA001068134","2013-10-27",51.44,33.08,0.00,0.00,
"CA001068134","2013-10-28",47.66,36.68,0.00,0.00,
"CA001068134","2013-10-29",43.88,27.32,0.00,0.00,
"CA001068134","2013-10-30",42.98,32.90,88.00,0.00,
"CA001068134","2013-10-31",48.74,39.38,69.00,0.00,
"CA001068134","2013-11-01",47.48,32.18,8.00,0.00,
"CA001068134","2013-11-02",43.52,31.10,0.00,0.00,
"CA001068134","2013-11-03",38.66,27.32,0.00,0.00,
"CA001068134","2013-11-04",31.46,20.48,28.00,0.00,40.00
"CA001068134","2013-11-05",35.96,30.74,2.00,0.00,40.00
"CA001068134","2013-11-06",40.28,33.62,12.00,0.00,
"CA001068134","2013-11-07",43.34,35.24,0.00,0.00,
"CA001068134","2013-11-08",39.92,34.70,96.00,0.00,
"CA001068134","2013-11-09",40.28,33.08,8.00,0.00,
"CA001068134","2013-11-11",36.68,31.46,18.00,14.00,10.00
"CA001068134","2013-11-12",34.16,31.28,188.00,66.00,40.00
"CA001068134","2013-11-13",36.50,32.36,120.00,0.00,10.00
"CA001068134","2013-11-14",43.52,35.60,2.00,0.00,
"CA001068134","2013-11-15",39.38,31.10,73.00,0.00,
"CA001068134","2013-11-16",31.82,25.16,0.00,0.00,
"CA001068134","2013-11-17",27.86,22.28,110.00,108.00,70.00
"CA001068134","2013-11-18",23.90,16.16,4.00,4.00,80.00
"CA001068134","2013-11-19",21.02,16.34,14.00,14.00,80.00
"CA001068134","2013-11-20",30.92,17.60,52.00,56.00,110.00
"CA001068134","2013-11-21",39.02,28.58,14.00,0.00,90.00
"CA001068134","2013-11-22",39.20,34.34,0.00,0.00,
"CA001068134","2013-11-23",38.66,33.44,26.00,0.00,
"CA001068134","2013-11-24",35.96,31.64,62.00,0.00,
"CA001068134","2013-11-25",37.94,31.28,0.00,0.00,
"CA001068134","2013-11-26",38.48,32.36,0.00,0.00,
"CA001068134","2013-11-27",38.48,34.88,60.00,0.00,
"CA001068134","2013-11-28",43.70,33.98,52.00,0.00,
"CA001068134","2013-11-29",41.36,37.04,7.00,0.00,
"CA001068134","2013-11-30",41.18,36.68,77.00,0.00,
"CA001068134","2013-12-01",39.38,27.50,88.00,8.00,0.00
"CA001068134","2013-12-02",27.32,21.38,0.00,0.00,
"CA001068134","2013-12-03",22.64,17.06,0.00,0.00,
"CA001068134","2013-12-04",19.58,15.44,0.00,0.00,
"CA001068134","2013-12-05",23.00,15.44,0.00,0.00,
"CA001068134","2013-12-06",17.24,7.52,0.00,0.00,
"CA001068134","2013-12-07",14.54,7.16,0.00,0.00,
"CA001068134","2013-12-08",20.30,7.16,0.00,0.00,
"CA001068134","2013-12-09",26.24,12.92,0.00,0.00,
"CA001068134","2013-12-10",34.88,25.70,15.00,0.00,
"CA001068134","2013-12-11",37.94,34.34,44.00,0.00,
"CA001068134","2013-12-12",37.58,32.54,57.00,0.00,
"CA001068134","2013-12-13",40.46,35.24,26.00,0.00,
"CA001068134","2013-12-14",44.96,35.96,218.00,0.00,
"CA001068134","2013-12-15",42.44,33.62,64.00,0.00,
"CA001068134","2013-12-16",37.76,32.18,184.00,80.00,60.00
"CA001068134","2013-12-17",,,,,40.00
"CA001068134","2013-12-18",31.64,20.30,0.00,0.00,0.00
"CA001068134","2013-12-19",28.04,19.22,64.00,70.00,0.00
"CA001068134","2013-12-20",30.56,21.74,108.00,96.00,100.00
"CA001068134","2013-12-21",26.24,21.92,52.00,56.00,130.00
"CA001068134","2013-12-22",35.24,22.82,444.00,62.00,170.00
"CA001068134","2013-12-23",40.64,32.00,36.00,0.00,80.00
"CA001068134","2013-12-24",,,,,70.00
"CA001068134","2013-12-25",37.40,32.90,68.00,10.00,60.00
"CA001068134","2013-12-26",38.84,32.00,340.00,30.00,10.00
"CA001068134","2013-12-27",37.40,31.64,138.00,76.00,100.00
"CA001068134","2013-12-28",36.32,32.18,104.00,38.00,90.00
"CA001068134","2013-12-29",39.20,31.82,75.00,6.00,60.00
"CA001068134","2013-12-30",39.74,32.90,40.00,0.00,10.00
"CA001068134","2013-12-31",41.36,37.94,12.00,0.00,
"CA001068134","2014-01-01",41.36,36.68,51.00,0.00,
"CA001068134","2014-01-02",38.30,31.82,132.00,64.00,60.00
"CA001068134","2014-01-03",34.88,30.20,2.00,4.00,50.00
"CA001068134","2014-01-04",31.10,26.96,0.00,0.00,40.00
"CA001068134","2014-01-05",31.46,22.28,0.00,0.00,40.00
"CA001068134","2014-01-06",29.48,17.24,0.00,0.00,40.00
"CA001068134","2014-01-07",29.84,27.14,8.00,16.00,50.00
"CA001068134","2014-01-08",36.14,29.12,18.00,0.00,50.00
"CA001068134","2014-01-09",36.32,31.46,12.00,4.00,30.00
"CA001068134","2014-01-10",35.42,31.46,0.00,0.00,0.00
"CA001068134","2014-01-11",34.16,29.12,86.00,124.00,120.00
"CA001068134","2014-01-12",39.20,31.10,170.00,86.00,120.00
"CA001068134","2014-01-13",40.82,34.70,40.00,0.00,40.00
"CA001068134","2014-01-14",45.32,35.42,230.00,0.00,20.00
"CA001068134","2014-01-15",44.60,33.62,0.00,0.00,
"CA001068134","2014-01-16",40.46,35.42,22.00,0.00,
"CA001068134","2014-01-17",37.76,32.54,0.00,0.00,
"CA001068134","2014-01-18",41.54,30.74,36.00,0.00,
"CA001068134","2014-01-19",39.20,31.82,0.00,0.00,
"CA001068134","2014-01-20",32.54,30.56,58.00,38.00,30.00
"CA001068134","2014-01-21",36.50,31.64,2.00,0.00,20.00
"CA001068134","2014-01-22",38.12,32.18,0.00,0.00,10.00
"CA001068134","2014-01-23",38.12,33.98,0.00,0.00,
"CA001068134","2014-01-24",39.02,33.44,0.00,0.00,
"CA001068134","2014-01-25",37.22,33.08,0.00,0.00,
"CA001068134","2014-01-26",37.94,31.82,0.00,0.00,
"CA001068134","2014-01-27",37.76,33.08,0.00,0.00,
"CA001068134","2014-01-28",35.06,30.92,28.00,32.00,10.00
"CA001068134","2014-01-29",33.98,30.92,0.00,0.00,10.00
"CA001068134","2014-01-30",35.06,21.74,0.00,0.00,0.00
"CA001068134","2014-01-31",24.80,16.88,0.00,0.00,
"CA001068134","2014-02-01",23.72,13.28,0.00,0.00,
"CA001068134","2014-02-02",25.52,14.00,0.00,0.00,
"CA001068134","2014-02-03",28.76,16.34,0.00,0.00,
"CA001068134","2014-02-04",20.30,10.40,0.00,0.00,
"CA001068134","2014-02-05",20.12,9.14,0.00,0.00,
"CA001068134","2014-02-06",15.08,3.92,0.00,0.00,
"CA001068134","2014-02-07",14.72,3.02,0.00,0.00,
"CA001068134","2014-02-08",19.40,6.98,0.00,0.00,
"CA001068134","2014-02-09",20.30,8.78,0.00,0.00,
"CA001068134","2014-02-10",17.60,12.02,106.00,108.00,0.00
"CA001068134","2014-02-11",19.22,16.88,120.00,120.00,30.00
"CA001068134","2014-02-12",26.60,15.08,28.00,32.00,150.00
"CA001068134","2014-02-13",27.32,22.64,66.00,66.00,160.00
"CA001068134","2014-02-14",37.94,26.96,18.00,24.00,180.00
"CA001068134","2014-02-15",41.36,30.38,0.00,0.00,80.00
"CA001068134","2014-02-16",37.58,27.86,22.00,20.00,100.00
"CA001068134","2014-02-17",35.78,27.32,54.00,80.00,140.00
"CA001068134","2014-02-18",35.42,28.04,98.00,162.00,200.00
"CA001068134","2014-02-19",34.16,24.62,36.00,74.00,300.00
"CA001068134","2014-02-20",33.08,29.30,18.00,20.00,280.00
"CA001068134","2014-02-21",32.72,22.46,0.00,0.00,260.00
"CA001068134","2014-02-22",32.90,23.90,12.00,14.00,260.00
"CA001068134","2014-02-23",27.14,10.22,0.00,0.00,260.00
"CA001068134","2014-02-24",28.04,13.64,0.00,0.00,260.00
"CA001068134","2014-02-25",30.38,17.42,0.00,0.00,240.00
"CA001068134","2014-02-26",33.62,19.22,0.00,0.00,190.00
"CA001068134","2014-02-27",38.30,29.12,0.00,0.00,180.00
"CA001068134","2014-02-28",35.24,23.00,0.00,0.00,160.00
"CA001068134","2014-03-01",23.90,9.68,0.00,0.00,100.00
"CA001068134","2014-03-02",18.14,9.32,0.00,0.00,90.00
"CA001068134","2014-03-03",18.14,8.42,0.00,0.00,90.00
"CA001068134","2014-03-04",19.76,5.72,0.00,0.00,60.00
"CA001068134","2014-03-05",23.90,5.00,0.00,0.00,50.00
"CA001068134","2014-03-06",30.56,18.50,0.00,0.00,40.00
"CA001068134","2014-03-07",30.56,24.08,522.00,472.00,40.00
"CA001068134","2014-03-08",34.34,28.94,144.00,0.00,410.00
"CA001068134","2014-03-09",41.54,33.62,10.00,0.00,330.00
"CA001068134","2014-03-10",41.72,33.62,18.00,0.00,100.00
"CA001068134","2014-03-11",42.08,35.60,34.00,0.00,50.00
"CA001068134","2014-03-12",45.86,36.14,132.00,0.00,10.00
"CA001068134","2014-03-13",42.98,32.54,0.00,0.00,
"CA001068134","2014-03-14",39.38,31.82,30.00,10.00,10.00
"CA001068134","2014-03-15",37.76,31.82,258.00,116.00,0.00
"CA001068134","2014-03-16",43.16,32.18,191.00,4.00,0.00
"CA001068134","2014-03-17",39.20,29.12,0.00,0.00,0.00
"CA001068134","2014-03-18",38.12,31.10,54.00,34.00,0.00
"CA001068134","2014-03-19",43.34,31.64,2.00,0.00,
"CA001068134","2014-03-20",44.06,28.04,10.00,0.00,0.00
"CA001068134","2014-03-21",42.44,30.38,0.00,0.00,
"CA001068134","2014-03-22",38.30,28.76,10.00,10.00,0.00
"CA001068134","2014-03-23",43.34,30.02,0.00,0.00,
"CA001068134","2014-03-24",36.14,27.50,10.00,10.00,0.00
"CA001068134","2014-03-25",42.08,28.94,2.00,2.00,0.00
"CA001068134","2014-03-26",37.94,30.92,0.00,0.00,
"CA001068134","2014-03-27",39.56,28.76,0.00,0.00,
"CA001068134","2014-03-28",45.68,30.74,0.00,0.00,
"CA001068134","2014-03-29",50.54,35.06,2.00,0.00,
"CA001068134","2014-03-30",50.72,35.24,0.00,0.00,
"CA001068134","2014-03-31",53.96,28.04,0.00,0.00,
"CA001068134","2014-04-01",53.42,27.86,0.00,0.00,
"CA001068134","2014-04-02",48.02,24.08,12.00,0.00,
"CA001068134","2014-04-03",42.62,35.42,6.00,0.00,
"CA001068134","2014-04-04",48.38,35.60,2.00,0.00,
"CA001068134","2014-04-05",41.72,34.88,30.00,0.00,
"CA001068134","2014-04-06",44.42,36.68,127.00,0.00,
"CA001068134","2014-04-07",51.44,34.70,215.00,0.00,
"CA001068134","2014-04-08",46.58,37.04,52.00,0.00,
"CA001068134","2014-04-09",43.34,34.34,57.00,0.00,
"CA001068134","2014-04-10",43.70,34.88,53.00,0.00,
"CA001068134","2014-04-11",54.32,37.04,22.00,0.00,
"CA001068134","2014-04-12",57.20,32.72,,0.00,
"CA001068134","2014-04-13",61.70,26.42,0.00,0.00,
"CA001068134","2014-04-14",50.90,32.36,12.00,0.00,
"CA001068134","2014-04-15",52.70,36.32,2.00,0.00,
"CA001068134","2014-04-16",53.24,28.22,36.00,0.00,
"CA001068134","2014-04-17",52.88,38.84,72.00,0.00,
"CA001068134","2014-04-18",53.42,37.76,30.00,0.00,
"CA001068134","2014-04-19",48.56,36.86,14.00,0.00,
"CA001068134","2014-04-20",51.98,38.48,18.00,0.00,
"CA001068134","2014-04-21",54.50,33.98,16.00,0.00,
"CA001068134","2014-04-22",50.72,33.80,124.00,0.00,
"CA001068134","2014-04-23",55.58,27.50,0.00,0.00,
"CA001068134","2014-04-24",59.90,34.52,20.00,0.00,
"CA001068134","2014-04-25",53.78,41.00,107.00,0.00,
"CA001068134","2014-04-26",57.02,33.26,0.00,0.00,
"CA001068134","2014-04-27",54.32,32.18,0.00,0.00,
"CA001068134","2014-04-28",50.00,37.94,4.00,0.00,
"CA001068134","2014-04-29",46.22,38.66,103.00,0.00,
"CA001068134","2014-04-30",51.44,43.34,62.00,0.00,
"CA001068134","2014-05-01",69.62,44.96,0.00,0.00,
"CA001068134","2014-05-02",57.74,44.06,6.00,0.00,
"CA001068134","2014-05-03",54.86,42.44,0.00,0.00,
"CA001068134","2014-05-04",61.16,35.60,0.00,0.00,
"CA001068134","2014-05-05",64.04,27.14,0.00,0.00,
"CA001068134","2014-05-06",69.08,31.46,0.00,0.00,
"CA001068134","2014-05-07",67.64,39.74,0.00,0.00,
"CA001068134","2014-05-08",63.14,44.96,0.00,0.00,
"CA001068134","2014-05-09",71.60,46.58,0.00,0.00,
"CA001068134","2014-05-10",69.44,46.04,0.00,0.00,
"CA001068134","2014-05-11",69.44,41.18,0.00,0.00,
"CA001068134","2014-05-12",62.42,42.62,0.00,0.00,
"CA001068134","2014-05-13",56.30,48.20,46.00,0.00,
"CA001068134","2014-05-14",63.50,51.26,4.00,0.00,
"CA001068134","2014-05-15",74.48,45.50,0.00,0.00,
"CA001068134","2014-05-16",77.00,50.90,6.00,0.00,
"CA001068134","2014-05-17",55.04,50.54,126.00,0.00,
"CA001068134","2014-05-18",58.82,48.56,4.00,0.00,
"CA001068134","2014-05-19",60.80,49.64,0.00,0.00,
"CA001068134","2014-05-20",57.92,45.14,4.00,0.00,
"CA001068134","2014-05-21",49.46,44.24,130.00,0.00,
"CA001068134","2014-05-22",55.94,49.46,78.00,0.00,
"CA001068134","2014-05-23",55.94,47.12,142.00,0.00,
"CA001068134","2014-05-24",60.62,41.18,9.00,0.00,
"CA001068134","2014-05-25",65.30,45.32,9.00,0.00,